This is the latest recevied weather packets stored in our database for station/object IZ4UFQ-10. If no packets are shown the sender has not sent any weather packets the latest 1 day(s).
| Time | Temp. | Humidity | Pressure | Rain* | Wind** | Luminosity | Snow |
|---|---|---|---|---|---|---|---|
| 1778064162 | 18.33° C | 88% | 1008.9 hPa | 0 mm | - | 763 W/m² | - |
| 1778063862 | 17.78° C | 89% | 1008.9 hPa | 0 mm | - | 828 W/m² | - |
| 1778062961 | 17.22° C | 95% | 1009 hPa | 0 mm | - | 1081 W/m² | - |
| 1778062661 | 17.22° C | 95% | 1008.9 hPa | 0 mm | - | 1104 W/m² | - |
| 1778062060 | 16.67° C | 96% | 1009.2 hPa | 0 mm | - | 995 W/m² | - |
| 1778061760 | 16.67° C | 96% | 1009.3 hPa | 0 mm | - | 1049 W/m² | - |
| 1778060559 | 16.11° C | 96% | 1009.4 hPa | 0 mm | - | 478 W/m² | - |
| 1778059958 | 15.56° C | 96% | 1009.3 hPa | 0.25 mm | - | 448 W/m² | - |
| 1778059658 | 15.56° C | 96% | 1009.5 hPa | 0.25 mm | - | 431 W/m² | - |
| 1778058757 | 15° C | 96% | 1009.4 hPa | 1.02 mm | - | 788 W/m² | - |
| 1778058457 | 15° C | 96% | 1009.3 hPa | 1.27 mm | - | 513 W/m² | - |
| 1778057856 | 14.44° C | 96% | 1009.4 hPa | 1.52 mm | - | 418 W/m² | - |
| 1778057556 | 14.44° C | 96% | 1009.4 hPa | 1.78 mm | - | 253 W/m² | - |
| 1778057256 | 14.44° C | 96% | 1009.6 hPa | 1.78 mm | - | 165 W/m² | - |
| 1778056955 | 14.44° C | 96% | 1009.7 hPa | 1.78 mm | - | 125 W/m² | - |
| 1778056655 | 14.44° C | 96% | 1009.6 hPa | 1.78 mm | - | 102 W/m² | - |
| 1778056355 | 14.44° C | 96% | 1009.5 hPa | 1.52 mm | - | 109 W/m² | - |
| 1778055754 | 14.44° C | 96% | 1009.5 hPa | 1.52 mm | - | 113 W/m² | - |
| 1778055454 | 14.44° C | 96% | 1009.5 hPa | 1.27 mm | - | 83 W/m² | - |
| 1778054553 | 14.44° C | 96% | 1009.4 hPa | 1.27 mm | - | 63 W/m² | - |
| 1778054253 | 14.44° C | 96% | 1009.4 hPa | 1.02 mm | - | 67 W/m² | - |
| 1778053352 | 13.89° C | 96% | 1009.5 hPa | 1.27 mm | - | 74 W/m² | - |
| 1778052451 | 13.89° C | 96% | 1009.4 hPa | 1.78 mm | - | 134 W/m² | - |
| 1778052151 | 13.89° C | 96% | 1009.5 hPa | 2.03 mm | - | 109 W/m² | - |
| 1778051850 | 13.89° C | 96% | 1009.5 hPa | 2.54 mm | - | 148 W/m² | - |
* Rain latest hour (hover to see other rain measurements)
** Current wind speed in m/s (hover to see current wind gust speed)